When you browse on this site, cookies collect data to enhance your experience and personalize the content and advertising you see.
Visit our Privacy Policy to learn more. By continuing to use the site, you agree to this use of cookies and data.

Meteo pe oră la Alhimovo

Astăzi, 14 August, Vineri

Timp Temperatura Precipitaţii Vânt Presiune Umiditate
00:00 +9°C° 0 mm 2 m/s 739 mmHg 84%
01:00 +8°C° 0 mm 2 m/s 739 mmHg 85%
02:00 +9°C° 0 mm 2 m/s 739 mmHg 89%
03:00 +9°C° 0 mm 2 m/s 740 mmHg 88%
04:00 +9°C° 0 mm 2 m/s 740 mmHg 87%
05:00 +9°C° 0 mm 2 m/s 740 mmHg 87%
06:00 +10°C° 0 mm 2 m/s 740 mmHg 83%
07:00 +12°C° 0 mm 2 m/s 740 mmHg 80%
08:00 +12°C° 0 mm 3 m/s 740 mmHg 77%
09:00 +14°C° 0 mm 3 m/s 740 mmHg 71%
10:00 +16°C° 0 mm 3 m/s 740 mmHg 66%
11:00 +17°C° 0 mm 3 m/s 740 mmHg 61%
12:00 +17°C° 0 mm 3 m/s 740 mmHg 60%
13:00 +18°C° 0 mm 3 m/s 740 mmHg 60%
14:00 +18°C° 0 mm 3 m/s 740 mmHg 59%
15:00 +18°C° 0 mm 3 m/s 740 mmHg 63%
16:00 +17°C° 0 mm 2 m/s 740 mmHg 67%
17:00 +17°C° 0 mm 2 m/s 740 mmHg 71%
18:00 +15°C° 0 mm 2 m/s 740 mmHg 75%
19:00 +13°C° 0 mm 1 m/s 740 mmHg 79%
20:00 +12°C° 0 mm 1 m/s 740 mmHg 83%
21:00 +11°C° 0 mm 1 m/s 740 mmHg 83%
22:00 +11°C° 0 mm 1 m/s 740 mmHg 84%
23:00 +11°C° 0 mm 1 m/s 741 mmHg 84%

Mâine, 15 August, Sâmbătă

Timp Temperatura Precipitaţii Vânt Presiune Umiditate
00:00 +10°C° 0 mm 1 m/s 741 mmHg 85%
01:00 +10°C° 0 mm 1 m/s 741 mmHg 86%
02:00 +10°C° 0 mm 1 m/s 741 mmHg 87%
03:00 +10°C° 0 mm 1 m/s 741 mmHg 88%
04:00 +10°C° 0 mm 1 m/s 741 mmHg 88%
05:00 +10°C° 0 mm 1 m/s 741 mmHg 89%
06:00 +11°C° 0 mm 1 m/s 741 mmHg 85%
07:00 +13°C° 0 mm 1 m/s 741 mmHg 80%
08:00 +14°C° 0 mm 1 m/s 741 mmHg 76%
09:00 +15°C° 0 mm 2 m/s 741 mmHg 74%
10:00 +16°C° 0 mm 2 m/s 741 mmHg 72%
11:00 +17°C° 0 mm 2 m/s 741 mmHg 70%
12:00 +17°C° 0.5 mm 2 m/s 740 mmHg 76%
13:00 +16°C° 0.5 mm 1 m/s 740 mmHg 82%
14:00 +15°C° 0.5 mm 1 m/s 740 mmHg 88%
15:00 +16°C° 0.3 mm 1 m/s 740 mmHg 88%
16:00 +16°C° 0.3 mm 1 m/s 740 mmHg 88%
17:00 +16°C° 0.3 mm 2 m/s 739 mmHg 88%
18:00 +16°C° 0 mm 2 m/s 739 mmHg 89%
19:00 +15°C° 0 mm 1 m/s 739 mmHg 91%
20:00 +14°C° 0 mm 1 m/s 739 mmHg 93%
21:00 +14°C° 0 mm 1 m/s 739 mmHg 93%
22:00 +13°C° 0 mm 1 m/s 739 mmHg 93%
23:00 +13°C° 0 mm 1 m/s 739 mmHg 93%

Poimâine, 16 August, Duminică

Timp Temperatura Precipitaţii Vânt Presiune Umiditate
00:00 +13°C° 0 mm 1 m/s 738 mmHg 93%
01:00 +12°C° 0 mm 1 m/s 738 mmHg 94%
02:00 +12°C° 0 mm 1 m/s 738 mmHg 94%
03:00 +12°C° 0 mm 1 m/s 738 mmHg 94%
04:00 +12°C° 0 mm 1 m/s 738 mmHg 94%
05:00 +12°C° 0 mm 1 m/s 738 mmHg 95%
06:00 +14°C° 0 mm 1 m/s 738 mmHg 92%
07:00 +15°C° 0 mm 1 m/s 738 mmHg 88%
08:00 +18°C° 0 mm 1 m/s 738 mmHg 85%
09:00 +18°C° 0.1 mm 2 m/s 738 mmHg 82%
10:00 +20°C° 0.1 mm 2 m/s 738 mmHg 78%
11:00 +21°C° 0.1 mm 2 m/s 738 mmHg 75%
12:00 +22°C° 0.2 mm 3 m/s 738 mmHg 71%
13:00 +22°C° 0.2 mm 3 m/s 738 mmHg 68%
14:00 +24°C° 0.2 mm 3 m/s 738 mmHg 65%
15:00 +24°C° 0 mm 3 m/s 737 mmHg 67%
16:00 +24°C° 0 mm 2 m/s 737 mmHg 69%
17:00 +24°C° 0 mm 2 m/s 737 mmHg 71%
18:00 +21°C° 0.1 mm 2 m/s 737 mmHg 76%
19:00 +19°C° 0.1 mm 2 m/s 737 mmHg 80%
20:00 +18°C° 0.1 mm 2 m/s 737 mmHg 85%
21:00 +17°C° 0 mm 2 m/s 737 mmHg 87%
22:00 +16°C° 0 mm 2 m/s 737 mmHg 89%
23:00 +16°C° 0 mm 3 m/s 737 mmHg 91%

17 August, Luni

Timp Temperatura Precipitaţii Vânt Presiune Umiditate
00:00 +14°C° 0 mm 3 m/s 737 mmHg 92%
01:00 +14°C° 0 mm 3 m/s 737 mmHg 92%
02:00 +14°C° 0 mm 3 m/s 737 mmHg 93%
03:00 +14°C° 0 mm 3 m/s 737 mmHg 93%
04:00 +14°C° 0 mm 3 m/s 737 mmHg 94%
05:00 +14°C° 0 mm 3 m/s 737 mmHg 94%
06:00 +16°C° 0 mm 3 m/s 737 mmHg 88%
07:00 +18°C° 0 mm 4 m/s 737 mmHg 83%
08:00 +19°C° 0 mm 4 m/s 737 mmHg 77%
09:00 +21°C° 0 mm 4 m/s 737 mmHg 72%
10:00 +22°C° 0 mm 5 m/s 737 mmHg 68%
11:00 +23°C° 0 mm 5 m/s 737 mmHg 63%
12:00 +23°C° 0.4 mm 5 m/s 737 mmHg 64%
13:00 +25°C° 0.4 mm 5 m/s 737 mmHg 65%
14:00 +25°C° 0.4 mm 5 m/s 736 mmHg 66%
15:00 +23°C° 0.4 mm 4 m/s 736 mmHg 70%
16:00 +24°C° 0.4 mm 3 m/s 736 mmHg 74%
17:00 +23°C° 0.4 mm 2 m/s 736 mmHg 78%
18:00 +20°C° 0 mm 2 m/s 736 mmHg 81%
19:00 +19°C° 0 mm 2 m/s 736 mmHg 84%
20:00 +17°C° 0 mm 2 m/s 737 mmHg 87%
21:00 +16°C° 0 mm 2 m/s 737 mmHg 88%
22:00 +15°C° 0 mm 1 m/s 737 mmHg 89%
23:00 +14°C° 0 mm 1 m/s 737 mmHg 90%

18 August, Marţi

Timp Temperatura Precipitaţii Vânt Presiune Umiditate
00:00 +14°C° 0 mm 1 m/s 737 mmHg 90%
01:00 +13°C° 0 mm 1 m/s 737 mmHg 90%
02:00 +13°C° 0 mm 1 m/s 737 mmHg 90%
03:00 +13°C° 0 mm 1 m/s 737 mmHg 90%
04:00 +12°C° 0 mm 1 m/s 736 mmHg 91%
05:00 +12°C° 0 mm 1 m/s 736 mmHg 91%
06:00 +14°C° 0 mm 1 m/s 736 mmHg 87%
07:00 +15°C° 0 mm 1 m/s 736 mmHg 83%
08:00 +18°C° 0 mm 1 m/s 736 mmHg 79%
09:00 +19°C° 0 mm 1 m/s 736 mmHg 73%
10:00 +20°C° 0 mm 1 m/s 736 mmHg 67%
11:00 +22°C° 0 mm 1 m/s 736 mmHg 62%
12:00 +22°C° 0 mm 1 m/s 736 mmHg 59%
13:00 +23°C° 0 mm 1 m/s 736 mmHg 56%
14:00 +23°C° 0 mm 1 m/s 735 mmHg 53%
15:00 +23°C° 0 mm 1 m/s 735 mmHg 57%
16:00 +22°C° 0 mm 1 m/s 735 mmHg 61%
17:00 +22°C° 0 mm 1 m/s 735 mmHg 64%
18:00 +20°C° 0 mm 1 m/s 735 mmHg 67%
19:00 +18°C° 0 mm 1 m/s 735 mmHg 71%
20:00 +15°C° 0 mm 1 m/s 735 mmHg 74%
21:00 +14°C° 0 mm 1 m/s 735 mmHg 76%
22:00 +14°C° 0 mm 1 m/s 735 mmHg 78%
23:00 +14°C° 0 mm 1 m/s 735 mmHg 80%

19 August, Miercuri

Timp Temperatura Precipitaţii Vânt Presiune Umiditate
00:00 +13°C° 0 mm 1 m/s 735 mmHg 81%
01:00 +13°C° 0 mm 1 m/s 735 mmHg 83%
02:00 +13°C° 0 mm 1 m/s 735 mmHg 85%
03:00 +12°C° 0 mm 1 m/s 734 mmHg 86%
04:00 +12°C° 0 mm 1 m/s 734 mmHg 87%
05:00 +12°C° 0 mm 1 m/s 734 mmHg 88%
06:00 +14°C° 0 mm 1 m/s 734 mmHg 84%
07:00 +16°C° 0 mm 1 m/s 734 mmHg 79%
08:00 +19°C° 0 mm 1 m/s 734 mmHg 74%
09:00 +20°C° 0 mm 2 m/s 734 mmHg 70%
10:00 +21°C° 0 mm 2 m/s 734 mmHg 65%
11:00 +23°C° 0 mm 2 m/s 734 mmHg 61%
12:00 +24°C° 0 mm 2 m/s 734 mmHg 59%
13:00 +24°C° 0 mm 2 m/s 734 mmHg 57%
14:00 +25°C° 0 mm 2 m/s 734 mmHg 55%
15:00 +25°C° 0 mm 2 m/s 733 mmHg 59%
16:00 +24°C° 0 mm 2 m/s 733 mmHg 64%
17:00 +24°C° 0 mm 2 m/s 733 mmHg 68%
18:00 +21°C° 0 mm 2 m/s 733 mmHg 74%
19:00 +19°C° 0 mm 2 m/s 733 mmHg 81%
20:00 +17°C° 0 mm 2 m/s 733 mmHg 87%
21:00 +17°C° 0 mm 3 m/s 732 mmHg 89%
22:00 +16°C° 0 mm 3 m/s 732 mmHg 91%
23:00 +16°C° 0 mm 3 m/s 732 mmHg 93%
Arată mai mult